TimeCST,TemperatureF,Dew PointF,Humidity,Sea Level PressureIn,VisibilityMPH,Wind Direction,Wind SpeedMPH,Gust SpeedMPH,PrecipitationIn,Events,Conditions,WindDirDegrees,DateUTC
12:00 AM,66,62,83,29.91,12,East,3.5,,,,,80,2013-12-03 06:00:00
12:00 AM,66.2,62.6,88,30.04,-9999.0,East,3.5,-,N/A,,Clear,80,2013-12-03 06:00:00
1:00 AM,64.4,60.8,88,30.03,-9999.0,NE,4.6,-,N/A,,Clear,50,2013-12-03 07:00:00
2:00 AM,62.6,60.8,94,30.01,-9999.0,East,4.6,-,N/A,,Clear,80,2013-12-03 08:00:00
3:00 AM,63,60,85,29.87,12,ENE,3.5,,,,,70,2013-12-03 09:00:00
3:00 AM,62.6,59.0,88,30.00,-9999.0,ENE,3.5,-,N/A,,Clear,70,2013-12-03 09:00:00
4:00 AM,64.4,59.0,83,30.00,-9999.0,NNE,5.8,-,N/A,,Clear,20,2013-12-03 10:00:00
5:00 AM,62.6,59.0,88,30.02,-9999.0,NE,5.8,-,N/A,,Clear,40,2013-12-03 11:00:00
6:00 AM,64,58,77,29.94,12,East,3.5,,,,Clear,100,2013-12-03 12:00:00
6:00 AM,64.4,59.0,83,30.04,-9999.0,East,3.5,-,N/A,,Clear,100,2013-12-03 12:00:00
7:00 AM,68.0,60.8,78,30.07,-9999.0,East,4.6,-,N/A,,Clear,90,2013-12-03 13:00:00
8:00 AM,75.2,60.8,61,30.09,-9999.0,ENE,4.6,-,N/A,,Clear,70,2013-12-03 14:00:00
9:00 AM,76,60,47,29.94,12,SSE,2.3,,,,Clear,160,2013-12-03 15:00:00
9:00 AM,77.0,59.0,54,30.09,-9999.0,SSE,2.3,-,N/A,,Clear,160,2013-12-03 15:00:00
10:00 AM,78.8,60.8,54,30.08,6.2,SW,4.6,-,N/A,,Mostly Cloudy,220,2013-12-03 16:00:00
11:00 AM,78.8,64.4,61,30.07,6.2,SW,13.8,-,N/A,,Mostly Cloudy,230,2013-12-03 17:00:00
12:00 PM,77,65,58,29.91,12,SW,10.4,,,,Haze,230,2013-12-03 18:00:00
12:00 PM,77.0,64.4,65,30.05,6.2,SW,10.4,-,N/A,,Mostly Cloudy,230,2013-12-03 18:00:00
1:00 PM,78.8,66.2,65,30.02,6.2,WSW,10.4,-,N/A,,Mostly Cloudy,250,2013-12-03 19:00:00
2:00 PM,71.6,66.2,83,30.00,6.2,WSW,10.4,-,N/A,,Mostly Cloudy,250,2013-12-03 20:00:00
3:00 PM,76,66,64,29.87,12,WSW,8.1,,,,Scattered Clouds,250,2013-12-03 21:00:00
3:00 PM,75.2,66.2,73,29.99,6.2,WSW,8.1,-,N/A,,Mostly Cloudy,250,2013-12-03 21:00:00
4:00 PM,75.2,66.2,73,-9999,6.2,WSW,6.9,-,N/A,,Mostly Cloudy,240,2013-12-03 22:00:00
5:00 PM,71.6,66.2,83,29.99,6.2,WSW,8.1,-,N/A,,Mostly Cloudy,250,2013-12-03 23:00:00
6:00 PM,69,68,97,29.91,5,WSW,6.9,,,Fog,Shallow Fog,250,2013-12-04 00:00:00
6:00 PM,69.8,68.0,94,30.01,5.0,WSW,6.9,-,N/A,Fog,Fog,250,2013-12-04 00:00:00
7:00 PM,68.0,66.2,94,30.03,6.2,SW,3.5,-,N/A,Fog,Light Drizzle,230,2013-12-04 01:00:00
8:00 PM,68.0,66.2,94,30.04,6.2,NW,2.3,-,N/A,Fog,Mostly Cloudy,310,2013-12-04 02:00:00
9:00 PM,67,66,96,29.93,6,WSW,3.5,,,,Overcast,240,2013-12-04 03:00:00
9:00 PM,66.2,66.2,100,30.06,6.2,WSW,3.5,-,N/A,Fog,Mostly Cloudy,240,2013-12-04 03:00:00
9:45 PM,68.0,66.2,94,30.07,1.2,SSW,2.3,-,N/A,,Mostly Cloudy,210,2013-12-04 03:45:00
10:00 PM,68.0,66.2,94,30.07,1.2,SSW,3.5,-,N/A,,Mostly Cloudy,210,2013-12-04 04:00:00
11:00 PM,68.0,66.2,94,30.05,5.0,NNE,5.8,-,N/A,Fog,Fog,20,2013-12-04 05:00:00